This is the latest recevied weather packets stored in our database for station/object W3TMB. If no packets are shown the sender has not sent any weather packets the latest 10 day(s).
| Time | Temp. | Humidity | Pressure | Rain* | Wind** | Luminosity | Snow |
|---|---|---|---|---|---|---|---|
| 1778099292 | 15.56° C | 87% | 1005 hPa | 0 mm | - | 73 W/m² | - |
| 1778098989 | 16.67° C | 86% | 1004.7 hPa | 0 mm | - | 35 W/m² | - |
| 1778098685 | 17.22° C | 88% | 1004.4 hPa | 0 mm | - | 47 W/m² | - |
| 1778098383 | 17.22° C | 88% | 1004.4 hPa | 0 mm | - | 92 W/m² | - |
| 1778098080 | 17.22° C | 89% | 1004.3 hPa | 0 mm | - | 94 W/m² | - |
| 1778097775 | 16.67° C | 89% | 1004.3 hPa | 0 mm | - | 128 W/m² | - |
| 1778097472 | 16.67° C | 90% | 1004.2 hPa | 0 mm | - | 112 W/m² | - |
| 1778097169 | 16.67° C | 92% | 1004.1 hPa | 0 mm | - | 77 W/m² | - |
| 1778096866 | 16.67° C | 92% | 1003.9 hPa | 0 mm | - | 71 W/m² | - |
| 1778096562 | 16.67° C | 92% | 1004.1 hPa | 0 mm | - | 73 W/m² | - |
| 1778096260 | 16.67° C | 92% | 1004.1 hPa | 0 mm | - | 72 W/m² | - |
| 1778095957 | 16.67° C | 91% | 1004 hPa | 0 mm | - | 52 W/m² | - |
| 1778095653 | 16.67° C | 91% | 1004.2 hPa | 0 mm | - | 70 W/m² | - |
| 1778095350 | 16.67° C | 91% | 1004.2 hPa | 0 mm | - | 72 W/m² | - |
| 1778095047 | 16.67° C | 91% | 1004.2 hPa | 0 mm | - | 86 W/m² | - |
| 1778094743 | 17.22° C | 92% | 1004.2 hPa | 0 mm | - | 93 W/m² | - |
| 1778094440 | 16.67° C | 93% | 1004.3 hPa | 0 mm | - | 111 W/m² | - |
| 1778094137 | 16.67° C | 93% | 1004.1 hPa | 0 mm | - | 87 W/m² | - |
| 1778093834 | 16.67° C | 93% | 1004.1 hPa | 0 mm | - | 104 W/m² | - |
| 1778093530 | 16.67° C | 94% | 1004 hPa | 0 mm | - | 138 W/m² | - |
| 1778093228 | 16.67° C | 94% | 1004 hPa | 0 mm | - | 92 W/m² | - |
| 1778092925 | 16.67° C | 95% | 1004.1 hPa | 0 mm | - | 108 W/m² | - |
| 1778092621 | 16.67° C | 95% | 1004.3 hPa | 0 mm | - | 103 W/m² | - |
| 1778092317 | 16.67° C | 96% | 1004.1 hPa | 0 mm | - | 77 W/m² | - |
| 1778092015 | 16.67° C | 95% | 1004 hPa | 0 mm | - | 56 W/m² | - |
* Rain latest hour (hover to see other rain measurements)
** Current wind speed in m/s (hover to see current wind gust speed)